Location: Jammaira
(46.0333°N, 1.4167°E)
Time: 02:07:52
(UTC+00:00)

Daily predictions for brighter satellites

Satellite Brightness Start Highest point End
(mag) Time Altitude Azimuth Time Altitude Azimuth Time Altitude Azimuth
ATLAS 3B R/B 4.0 03:30:34 32° NNE 03:31:06 32° NNE 03:37:23 10° E
Lacrosse 4 Rocket 4.4 03:38:11 14° ESE 03:38:11 14° ESE 03:38:53 10° ESE
ALOS 4.1 03:50:29 10° NNE 03:53:16 27° ENE 03:53:16 27° ENE
NOSS 3-2 (C) 4.0 04:00:07 77° SSW 04:00:07 77° SSW 04:08:17 10° SSE
NOSS 3-4 (A) 3.8 04:00:50 59° ESE 04:00:50 59° ESE 04:06:47 10° NE
NOSS 3-4 (C) 3.8 04:00:54 59° ESE 04:00:54 59° ESE 04:06:55 10° NE
CENTAUR R/B 3.0 04:01:35 78° WSW 04:01:43 78° SW 04:10:35 10° SSE
SL-4 R/B 4.4 04:15:02 18° NE 04:15:02 18° NE 04:16:07 10° ENE
ATLAS 2AS CENTAUR R/B 3.2 04:15:30 27° SSW 04:20:10 68° ESE 04:27:59 10° NE
Cosmos 1680 Rocket 4.5 04:20:02 34° NNE 04:21:46 45° ENE 04:26:51 10° SE
Atlas Centaur 2 4.3 04:26:40 16° SSW 04:28:09 17° S 04:31:52 10° SE
ATLAS 5 CENTAUR R/B 4.2 04:31:19 15° NNE 04:31:19 15° NNE 04:31:46 10° NNE
RESURS DK-1 4.4 04:27:38 10° SSE 04:31:08 27° ESE 04:34:38 10° NE
ATLAS CENTAUR R/B 3.0 04:32:06 27° NE 04:32:06 27° NE 04:35:14 10° ESE
Lacrosse 5 2.0 04:32:03 68° SE 04:32:09 68° SE 04:37:12 10° NE
ADEOS 3.8 04:29:26 10° NNE 04:34:41 70° ESE 04:39:53 10° S
Cosmos 1328 Rocket 3.9 04:35:40 63° E 04:35:40 63° E 04:40:02 10° SSE
Cosmos 2263 Rocket 2.5 04:43:11 49° NNW 04:43:11 49° NNW 04:47:50 10° NNE
Gbstr 26 Del rocket 3.5 04:43:34 49° E 04:43:34 49° E 04:46:32 10° ESE
SJ 16-02 1.9 04:45:52 49° NNE 04:45:52 49° NNE 04:49:09 10° NNE
Cosmos 1898 Rocket 4.3 04:47:06 10° S 04:52:15 53° ESE 04:57:26 10° NNE
Meteor 1-26 Rocket 4.1 04:48:59 19° NNW 04:53:17 85° W 04:58:53 10° S
FALCON 9 DEB 4.2 04:56:35 40° E 04:56:35 40° E 04:58:49 10° ENE
FALCON 9 DEB 4.2 04:56:45 39° ENE 04:56:45 39° ENE 04:58:57 10° ENE
FENGYUN 3A 3.5 04:54:12 10° N 04:59:34 65° WNW 05:04:54 10° SSW
Cosmos 1408 Rocket 3.6 04:57:26 10° S 05:01:53 80° E 05:06:21 10° N
Cosmos 2181 Rocket 3.8 04:58:16 10° NNW 05:04:28 71° W 05:10:32 10° S
USA 307 4.2 05:05:08 28° N 05:05:24 28° N 05:09:10 10° ENE
COSMO-SKYMED 1 2.5 05:01:15 10° SSE 05:05:35 87° ENE 05:08:00 26° NNW
Cosmos 1709 Rocket 4.1 05:00:27 10° SSW 05:06:38 51° WNW 05:12:51 10° N
Cosmos 1937 Rocket 4.2 05:04:21 10° S 05:09:20 53° ESE 05:14:23 10° NNE
USA 308 4.2 05:11:14 27° N 05:11:49 28° N 05:15:33 10° ENE
Lacrosse 4 Rocket 2.4 05:14:32 32° SW 05:14:32 32° SW 05:17:43 10° S
Meteor 2-3 Rocket 3.7 05:08:15 10° SSW 05:13:54 60° WNW 05:19:38 10° N
CZ-4C R/B 2.0 05:11:05 18° SW 05:14:51 88° SE 05:20:49 10° NE
MOS 1 Rocket 4.3 05:11:25 10° SE 05:16:03 50° ENE 05:21:01 10° N
Cosmos 1943 4.2 05:17:54 28° WSW 05:17:54 28° WSW 05:21:56 10° SSW
CZ-4B R/B 3.1 05:13:40 10° NNE 05:18:12 84° ESE 05:22:35 10° SSW
FALCON 9 DEB 2.8 05:18:33 81° N 05:18:33 81° N 05:21:42 10° ENE
Cosmos 1689 Rocket 2.2 05:15:45 10° SSE 05:18:12 63° SSE 05:18:12 63° SSE
SAR-Lupe-4 3.5 05:18:56 10° S 05:22:25 56° WSW 05:22:38 55° W
ATLAS 3B R/B 2.7 05:17:51 23° NW 05:22:28 79° SW 05:29:41 10° SSE
Aureole 2 Rocket 4.1 05:21:10 10° SSE 05:23:19 25° ESE 05:25:29 10° NE
Cosmos 1862 3.8 05:22:39 10° S 05:26:39 63° E 05:30:41 10° NNE
Genesis I 3.0 05:24:54 18° SW 05:27:38 89° SE 05:31:30 10° NE
YAOGAN 6 4.4 05:25:37 10° NNE 05:28:49 32° E 05:31:58 10° SSE
deb Chang Zheng 4 3.8 05:27:47 10° N 05:31:56 45° WNW 05:36:05 10° SW
ALOS 3.0 05:27:58 10° N 05:31:45 30° WNW 05:31:45 30° WNW
Cosmos 990 Rocket 4.0 05:29:44 10° SSW 05:34:55 62° WNW 05:40:09 10° NNE
Cosmos 2074 Rocket 3.9 05:30:20 10° SSW 05:36:32 74° W 05:42:46 10° N
PSLV R/B 4.4 05:33:54 10° NNE 05:37:44 57° E 05:41:27 10° S
ASTRO F (AKARI) 4.3 05:36:35 10° NNE 05:39:42 77° ESE 05:42:50 10° S
USA 305 4.1 05:38:55 21° NNW 05:40:51 30° N 05:44:42 10° ENE
BREEZE M DEB (TANK) 3.7 05:32:32 10° SW 05:41:13 48° SSE 05:44:11 10° E
Meteor 1-31 Rocket 4.0 05:38:22 10° N 05:40:29 23° NW 05:40:29 23° NW
Cosmos 405 Rocket 2.6 05:38:46 10° S 05:42:27 85° E 05:46:13 10° NNE
EO 1 Delta rocket 3.8 05:41:47 10° S 05:46:51 73° W 05:51:28 10° NNW
Cosmos 1812 2.6 05:43:27 10° NNW 05:47:17 77° W 05:51:07 10° S
USA 306 4.1 05:47:01 19° NW 05:49:21 32° NNE 05:53:14 10° ENE
Cosmos 2228 Rocket 3.0 05:45:24 10° NNW 05:49:50 77° W 05:54:12 10° S
Cosmos 1515 Rocket 4.1 05:46:48 14° NNW 05:50:17 37° W 05:54:22 10° SSW
CENTAUR R/B 4.3 05:48:50 18° W 05:51:36 21° WSW 05:57:41 10° SSW
NOSS 3-4 (A) 4.1 05:48:19 19° W 05:51:53 35° NW 05:57:46 10° NNE
NOSS 3-4 (C) 4.1 05:48:24 19° W 05:52:00 35° NW 05:57:54 10° NNE
PSLV R/B 4.4 05:48:27 10° SSW 05:52:21 39° W 05:55:47 13° NNW
SL-4 R/B 2.7 05:50:37 22° NW 05:52:30 35° N 05:55:54 10° ENE
Cosmos 1782 3.9 05:52:15 23° WNW 05:53:09 25° W 05:56:27 10° SW
DMSP B5D1-3 4.5 05:48:26 10° SSE 05:53:34 82° WSW 05:58:46 10° NNW
SKYMED 2 4.4 05:50:01 10° SSW 05:53:50 30° W 05:56:36 16° NW
Cosmos 2184 Rocket 4.1 05:47:54 10° SSW 05:54:05 58° WNW 06:00:24 10° N
USA-17 4.3 05:51:02 10° SW 05:54:43 62° NW 05:57:48 10° NNE
ERS-2 4.4 05:53:51 10° SW 05:53:52 10° SW 05:53:52 10° SW
FALCON 9 DEB 3.5 05:56:58 25° WNW 05:58:24 40° NNW 06:01:28 10° NE
USA 234 3.9 05:52:39 10° ENE 05:59:05 58° SE 06:05:31 10° SW
Spot 2 4.5 05:54:56 10° NNE 06:00:07 88° WNW 06:05:11 10° SSW
Cosmos 1844 Rocket 2.7 05:55:00 10° SW 06:00:34 59° WNW 06:06:12 10° NNE
FALCON 9 DEB 4.4 05:59:52 17° NW 06:01:53 30° NNE 06:04:59 10° ENE
Cosmos 1680 Rocket 4.5 06:00:25 15° NW 06:03:38 27° W 06:08:00 10° SSW
EXPRESS MD2 4.0 06:03:36 18° WNW 06:06:33 77° NNE 06:14:16 10° ESE
Cosmos 1707 Rocket 4.1 06:02:32 10° N 06:06:51 62° E 06:11:08 10° SSE
COSMOS 2455 3.0 06:02:38 10° SSW 06:08:40 80° ESE 06:14:43 10° NE
RESURS DK-1 3.1 06:05:17 10° WSW 06:09:03 33° NW 06:12:50 10° N
MOS 1-B 4.5 06:03:13 10° NNE 06:09:04 82° ESE 06:14:53 10° SSW
BREEZE-M (TANK) 4.5 06:02:23 10° SW 06:09:50 36° SSE 06:12:35 10° E
ATLAS CENTAUR R/B 2.0 06:08:18 16° WNW 06:10:46 33° WSW 06:14:21 10° S
BREEZE-M DEB 3.9 06:02:56 14° WNW 06:11:10 54° SW 06:14:19 10° SE
ATLAS 2AS CENTAUR R/B 3.5 06:04:16 10° WSW 06:11:42 41° NW 06:19:00 10° NNE
NOAA 6 4.0 06:07:02 10° NNE 06:12:12 85° WNW 06:17:18 10° SSW
ERBS 4.5 06:11:05 11° NNW 06:12:28 13° N 06:14:05 10° NNE
Cosmos 1500 Rocket 4.1 06:09:51 10° SW 06:13:48 35° WNW 06:17:49 10° N
Cosmos 1844 3.7 06:09:01 10° SW 06:14:29 57° WNW 06:20:00 10° NNE
H-2A R/B 3.2 06:11:05 10° N 06:14:45 39° WNW 06:18:22 10° SW
Lacrosse 5 2.6 06:11:18 13° W 06:15:27 36° NNW 06:20:08 10° NE
Atlas Centaur 2 4.3 06:12:56 10° SW 06:16:09 15° SSW 06:19:02 10° SSE
CZ-4B DEB 4.2 06:11:53 10° NNE 06:17:21 77° WNW 06:22:48 10° SSW
Cosmos 1437 Rocket 2.7 06:13:43 10° NNW 06:17:25 55° W 06:21:07 10° S
Cosmos 372 Rocket 3.9 06:12:53 10° SSW 06:17:58 79° WNW 06:23:06 10° NNE
Okean O Rocket 2.1 06:16:28 10° NNE 06:20:55 69° ESE 06:25:20 10° S
Cosmos 1242 Rocket 4.3 06:19:01 10° N 06:22:23 34° ENE 06:25:46 10° SE
PAYLOAD B 4.2 06:18:16 10° NNE 06:23:48 82° WNW 06:29:17 10° SSW
SJ 16-02 3.2 06:22:57 11° WNW 06:23:59 12° NW 06:25:44 10° NNW
USA 81 4.2 06:18:56 10° S 06:24:11 83° E 06:29:29 10° N
SMAP 3.2 06:19:57 10° NNE 06:24:38 85° ESE 06:29:17 10° SSW
Cosmos 2263 Rocket 3.9 06:24:56 10° WNW 06:27:29 13° NW 06:30:07 10° N
Gbstr 26 Del rocket 4.2 06:26:09 10° W 06:29:10 23° SW 06:32:24 10° S
ATLAS 5 CENTAUR R/B 2.4 06:27:08 10° SSW 06:31:04 53° ESE 06:35:26 10° NE
FALCON 9 DEB 4.0 06:28:59 10° W 06:31:52 30° NNW 06:34:47 10° NE
FALCON 9 DEB 4.0 06:29:05 10° WNW 06:31:57 29° NNW 06:34:51 10° NE
Sich 1 3.2 06:30:05 10° SSW 06:34:26 56° WNW 06:38:50 10° N
Cosmos 2218 Rocket 4.4 06:28:21 10° S 06:34:35 71° E 06:40:46 10° NNE
Nadezhda 3 Rocket 4.4 06:29:11 10° NNW 06:35:02 41° W 06:40:47 10° SSW
CZ-2C R/B 2.7 06:30:08 10° SSE 06:35:38 81° WSW 06:41:03 10° NNW
AQUARIUS 4.1 06:33:51 10° N 06:38:22 78° WNW 06:42:50 10° SSW
H-2A R/B 2.7 06:35:09 10° N 06:38:47 41° WNW 06:42:22 10° SW
Envisat 3.3 06:34:04 10° N 06:38:55 46° WNW 06:43:44 10° SW
Cosmos 2366 rocket 4.4 06:32:39 10° S 06:38:57 73° E 06:45:14 10° NNE
CORIOLIS 4.2 06:38:20 10° NNE 06:43:49 86° WNW 06:49:15 10° SSW
USA 307 3.6 06:41:59 10° NW 06:46:11 48° NNE 06:50:22 10° E
